| time (UTC) | temp C | wind direction | speed KPH | gust KPH | rain 1hr cm | rain 24hr cm | rain mn cm | humidity % | barometer mb |
| 20260508141036 | 11 | 261 | 8.0 | 20.9 | 0.00 | 0.00 | 0.00 | 43 | 1007.8 |
| 20260508140535 | 11 | 269 | 8.0 | 11.3 | 0.00 | 0.00 | 0.00 | 44 | 1007.9 |
| 20260508140037 | 10 | 267 | 3.2 | 11.3 | 0.00 | 0.00 | 0.00 | 48 | 1008.0 |
| 20260508135533 | 10 | 314 | 1.6 | 16.1 | 0.00 | 0.00 | 0.00 | 48 | 1008.1 |
| 20260508135032 | 10 | 281 | 6.4 | 17.7 | 0.00 | 0.00 | 0.00 | 46 | 1008.2 |
| 20260508134534 | 10 | 294 | 9.7 | 17.7 | 0.00 | 0.00 | 0.00 | 46 | 1008.4 |
| 20260508134030 | 10 | 294 | 1.6 | 8.0 | 0.00 | 0.00 | 0.00 | 49 | 1008.4 |
| 20260508133530 | 9 | 318 | 3.2 | 9.7 | 0.00 | 0.00 | 0.00 | 48 | 1008.4 |
| 20260508133029 | 9 | 312 | 4.8 | 9.7 | 0.00 | 0.00 | 0.00 | 50 | 1008.3 |
| 20260508132529 | 9 | 270 | 0.0 | 6.4 | 0.00 | 0.00 | 0.00 | 51 | 1008.4 |
| 20260508132026 | 8 | 274 | 3.2 | 6.4 | 0.00 | 0.00 | 0.00 | 52 | 1008.3 |
| 20260508131525 | 8 | 288 | 0.0 | 4.8 | 0.00 | 0.00 | 0.00 | 54 | 1008.3 |
| 20260508131024 | 8 | 231 | 0.0 | 1.6 | 0.00 | 0.00 | 0.00 | 56 | 1008.3 |
| 20260508130521 | 8 | 228 | 0.0 | 1.6 | 0.00 | 0.00 | 0.00 | 56 | 1008.3 |
| 20260508130020 | 7 | 341 | 0.0 | 1.6 | 0.00 | 0.00 | 0.00 | 56 | 1008.4 |
| 20260508125519 | 7 | 281 | 0.0 | 4.8 | 0.00 | 0.00 | 0.00 | 56 | 1008.4 |
| 20260508125018 | 7 | 297 | 0.0 | 4.8 | 0.00 | 0.00 | 0.00 | 55 | 1008.3 |
| 20260508124519 | 7 | 270 | 0.0 | 4.8 | 0.00 | 0.00 | 0.00 | 56 | 1008.3 |
| 20260508124018 | 7 | 273 | 1.6 | 4.8 | 0.00 | 0.00 | 0.00 | 55 | 1008.3 |
| 20260508123522 | 7 | 273 | 0.0 | 4.8 | 0.00 | 0.00 | 0.00 | 57 | 1008.3 |
| 20260508123024 | 6 | 276 | 0.0 | 4.8 | 0.00 | 0.00 | 0.00 | 56 | 1008.4 |
| 20260508122517 | 6 | 283 | 1.6 | 4.8 | 0.00 | 0.00 | 0.00 | 59 | 1008.4 |
| 20260508122016 | 6 | 283 | 1.6 | 4.8 | 0.00 | 0.00 | 0.00 | 57 | 1008.4 |
| 20260508121519 | 6 | 288 | 0.0 | 4.8 | 0.00 | 0.00 | 0.00 | 56 | 1008.3 |
| 20260508121015 | 6 | 276 | 1.6 | 4.8 | 0.00 | 0.00 | 0.00 | 55 | 1008.3 |
| 20260508120515 | 5 | 282 | 1.6 | 4.8 | 0.00 | 0.00 | 0.00 | 55 | 1008.3 |
| 20260508120015 | 5 | 286 | 1.6 | 4.8 | 0.00 | 0.00 | 0.00 | 55 | 1008.3 |
| 20260508115515 | 5 | 283 | 0.0 | 1.6 | 0.00 | 0.00 | 0.00 | 55 | 1008.3 |
| 20260508115014 | 4 | 290 | 0.0 | 1.6 | 0.00 | 0.00 | 0.00 | 56 | 1008.3 |
| 20260508114514 | 4 | 300 | 0.0 | 1.6 | 0.00 | 0.00 | 0.00 | 58 | 1008.2 |
| 20260508114018 | 3 | 27 | 0.0 | 0.0 | 0.00 | 0.00 | 0.00 | 59 | 1008.2 |
| 20260508113514 | 3 | 44 | 0.0 | 0.0 | 0.00 | 0.00 | 0.00 | 59 | 1008.2 |
| 20260508113016 | 3 | 48 | 0.0 | 0.0 | 0.00 | 0.00 | 0.00 | 60 | 1008.2 |
| 20260508112517 | 3 | 48 | 0.0 | 0.0 | 0.00 | 0.00 | 0.00 | 61 | 1008.2 |
| 20260508112012 | 3 | 48 | 0.0 | 0.0 | 0.00 | 0.00 | 0.00 | 61 | 1008.2 |
| 20260508111512 | 3 | 49 | 0.0 | 0.0 | 0.00 | 0.00 | 0.00 | 60 | 1008.1 |
| 20260508111010 | 3 | 49 | 0.0 | 0.0 | 0.00 | 0.00 | 0.00 | 58 | 1008.1 |
| 20260508110509 | 3 | 271 | 0.0 | 0.0 | 0.00 | 0.00 | 0.00 | 55 | 1008.2 |
| 20260508110015 | 3 | 271 | 0.0 | 0.0 | 0.00 | 0.00 | 0.00 | 54 | 1008.2 |
| 20260508105509 | 4 | 271 | 0.0 | 1.6 | 0.00 | 0.00 | 0.00 | 54 | 1008.2 |
| 20260508105006 | 4 | 252 | 0.0 | 3.2 | 0.00 | 0.00 | 0.00 | 55 | 1008.2 |
| 20260508104507 | 4 | 270 | 0.0 | 3.2 | 0.00 | 0.00 | 0.00 | 54 | 1008.3 |
| 20260508104004 | 4 | 276 | 0.0 | 4.8 | 0.00 | 0.00 | 0.00 | 54 | 1008.3 |
| 20260508103503 | 5 | 269 | 0.0 | 4.8 | 0.00 | 0.00 | 0.00 | 54 | 1008.3 |
| 20260508103002 | 5 | 270 | 1.6 | 3.2 | 0.00 | 0.00 | 0.00 | 54 | 1008.3 |
| 20260508102503 | 5 | 273 | 1.6 | 4.8 | 0.00 | 0.00 | 0.00 | 53 | 1008.4 |
| 20260508102002 | 5 | 273 | 3.2 | 6.4 | 0.00 | 0.00 | 0.00 | 53 | 1008.4 |
| 20260508101502 | 5 | 260 | 3.2 | 4.8 | 0.00 | 0.00 | 0.00 | 53 | 1008.3 |
| 20260508101002 | 5 | 255 | 3.2 | 6.4 | 0.00 | 0.00 | 0.00 | 53 | 1008.4 |
| 20260508100501 | 5 | 274 | 3.2 | 6.4 | 0.00 | 0.00 | 0.00 | 53 | 1008.4 |
| 20260508100105 | 5 | 262 | 3.2 | 9.7 | 0.00 | 0.00 | 0.00 | 53 | 1008.4 |
| 20260508095600 | 5 | 258 | 4.8 | 9.7 | 0.00 | 0.00 | 0.00 | 53 | 1008.4 |
| 20260508095502 | 5 | 260 | 3.2 | 9.7 | 0.00 | 0.00 | 0.00 | 53 | 1008.4 |
| 20260508095100 | 5 | 269 | 3.2 | 8.0 | 0.00 | 0.00 | 0.00 | 53 | 1008.4 |
| 20260508094616 | 5 | 267 | 3.2 | 8.0 | 0.00 | 0.00 | 0.00 | 53 | 1008.4 |
| 20260508094059 | 5 | 270 | 3.2 | 6.4 | 0.00 | 0.00 | 0.00 | 53 | 1008.5 |
| 20260508093602 | 5 | 260 | 1.6 | 4.8 | 0.00 | 0.00 | 0.00 | 53 | 1008.5 |
| 20260508093058 | 5 | 263 | 1.6 | 4.8 | 0.00 | 0.00 | 0.00 | 53 | 1008.5 |
| 20260508092557 | 5 | 260 | 1.6 | 6.4 | 0.00 | 0.00 | 0.00 | 53 | 1008.6 |
| 20260508092057 | 5 | 277 | 3.2 | 6.4 | 0.00 | 0.00 | 0.00 | 54 | 1008.6 |
| 20260508091559 | 5 | 270 | 1.6 | 3.2 | 0.00 | 0.00 | 0.00 | 54 | 1008.6 |
| 20260508091057 | 5 | 270 | 1.6 | 3.2 | 0.00 | 0.00 | 0.00 | 54 | 1008.6 |
| 20260508090557 | 5 | 257 | 1.6 | 4.8 | 0.00 | 0.00 | 0.00 | 54 | 1008.7 |
| 20260508090056 | 5 | 260 | 1.6 | 4.8 | 0.00 | 0.00 | 0.00 | 54 | 1008.7 |
| 20260508085556 | 5 | 262 | 3.2 | 4.8 | 0.00 | 0.00 | 0.00 | 54 | 1008.7 |
| 20260508085055 | 5 | 263 | 3.2 | 6.4 | 0.00 | 0.00 | 0.00 | 54 | 1008.6 |
| 20260508084555 | 5 | 259 | 3.2 | 6.4 | 0.00 | 0.00 | 0.00 | 54 | 1008.7 |
| 20260508084055 | 5 | 262 | 3.2 | 9.7 | 0.00 | 0.00 | 0.00 | 54 | 1008.6 |
| 20260508083553 | 5 | 250 | 3.2 | 9.7 | 0.00 | 0.00 | 0.00 | 54 | 1008.7 |
| 20260508083052 | 5 | 257 | 3.2 | 6.4 | 0.00 | 0.00 | 0.00 | 54 | 1008.8 |
| 20260508082551 | 5 | 243 | 3.2 | 6.4 | 0.00 | 0.00 | 0.00 | 53 | 1008.8 |
| 20260508082051 | 5 | 262 | 1.6 | 4.8 | 0.00 | 0.00 | 0.00 | 53 | 1008.8 |
| 20260508081610 | 5 | 248 | 3.2 | 6.4 | 0.00 | 0.00 | 0.00 | 53 | 1008.7 |
| 20260508081050 | 5 | 255 | 3.2 | 6.4 | 0.00 | 0.00 | 0.00 | 53 | 1008.8 |
| 20260508080549 | 5 | 256 | 3.2 | 4.8 | 0.00 | 0.00 | 0.00 | 53 | 1008.9 |
| 20260508080049 | 5 | 271 | 1.6 | 8.0 | 0.00 | 0.00 | 0.00 | 53 | 1008.9 |
| 20260508075548 | 5 | 260 | 3.2 | 8.0 | 0.00 | 0.00 | 0.00 | 53 | 1008.9 |
| 20260508075046 | 5 | 264 | 3.2 | 8.0 | 0.00 | 0.00 | 0.00 | 52 | 1008.9 |
| 20260508074546 | 5 | 249 | 3.2 | 8.0 | 0.00 | 0.00 | 0.00 | 52 | 1008.9 |
| 20260508074045 | 5 | 258 | 3.2 | 6.4 | 0.00 | 0.00 | 0.00 | 52 | 1008.9 |
| 20260508073545 | 5 | 250 | 4.8 | 6.4 | 0.00 | 0.00 | 0.00 | 52 | 1008.9 |
| 20260508073044 | 5 | 252 | 4.8 | 6.4 | 0.00 | 0.00 | 0.00 | 51 | 1008.9 |
| 20260508072542 | 5 | 265 | 3.2 | 6.4 | 0.00 | 0.00 | 0.00 | 51 | 1008.9 |
| 20260508072042 | 6 | 256 | 3.2 | 6.4 | 0.00 | 0.00 | 0.00 | 51 | 1008.9 |
| 20260508071545 | 6 | 261 | 3.2 | 8.0 | 0.00 | 0.00 | 0.00 | 51 | 1009.0 |
| 20260508071040 | 6 | 264 | 3.2 | 8.0 | 0.00 | 0.00 | 0.00 | 51 | 1009.0 |
| 20260508070539 | 6 | 269 | 1.6 | 4.8 | 0.00 | 0.00 | 0.00 | 50 | 1009.0 |
| 20260508070039 | 6 | 257 | 1.6 | 4.8 | 0.00 | 0.00 | 0.00 | 50 | 1009.1 |
| 20260508065538 | 6 | 256 | 1.6 | 6.4 | 0.00 | 0.00 | 0.00 | 50 | 1009.1 |
| 20260508065035 | 6 | 246 | 1.6 | 6.4 | 0.00 | 0.00 | 0.00 | 49 | 1009.1 |
| 20260508064535 | 6 | 259 | 0.0 | 4.8 | 0.00 | 0.00 | 0.00 | 49 | 1009.1 |
| 20260508064033 | 6 | 256 | 0.0 | 4.8 | 0.00 | 0.00 | 0.00 | 49 | 1009.2 |
| 20260508063534 | 6 | 267 | 0.0 | 4.8 | 0.00 | 0.00 | 0.00 | 48 | 1009.2 |
| 20260508063045 | 6 | 260 | 1.6 | 4.8 | 0.00 | 0.00 | 0.00 | 48 | 1009.2 |
| 20260508062532 | 6 | 269 | 1.6 | 3.2 | 0.00 | 0.00 | 0.00 | 47 | 1009.2 |
| 20260508062029 | 6 | 255 | 1.6 | 3.2 | 0.00 | 0.00 | 0.00 | 47 | 1009.2 |
| 20260508061530 | 6 | 255 | 1.6 | 3.2 | 0.00 | 0.00 | 0.00 | 47 | 1009.3 |
| 20260508061028 | 6 | 257 | 1.6 | 3.2 | 0.00 | 0.00 | 0.00 | 47 | 1009.4 |
| 20260508060527 | 6 | 263 | 0.0 | 3.2 | 0.00 | 0.00 | 0.00 | 47 | 1009.4 |
| 20260508060034 | 6 | 262 | 0.0 | 4.8 | 0.00 | 0.00 | 0.00 | 47 | 1009.4 |
| 20260508055526 | 6 | 255 | 3.2 | 4.8 | 0.00 | 0.00 | 0.00 | 47 | 1009.5 |
| 20260508055025 | 6 | 248 | 1.6 | 3.2 | 0.00 | 0.00 | 0.00 | 47 | 1009.5 |
| 20260508054525 | 6 | 255 | 0.0 | 1.6 | 0.00 | 0.00 | 0.00 | 46 | 1009.5 |
| 20260508054023 | 7 | 267 | 0.0 | 1.6 | 0.00 | 0.00 | 0.00 | 46 | 1009.5 |
| 20260508053523 | 7 | 257 | 0.0 | 1.6 | 0.00 | 0.00 | 0.00 | 46 | 1009.6 |
| 20260508053024 | 7 | 256 | 0.0 | 1.6 | 0.00 | 0.00 | 0.00 | 46 | 1009.6 |
| 20260508052524 | 7 | 255 | 0.0 | 1.6 | 0.00 | 0.00 | 0.00 | 45 | 1009.7 |
| 20260508052020 | 7 | 255 | 0.0 | 1.6 | 0.00 | 0.00 | 0.00 | 45 | 1009.7 |
| 20260508051522 | 7 | 257 | 0.0 | 1.6 | 0.00 | 0.00 | 0.00 | 45 | 1009.7 |
| 20260508051020 | 7 | 254 | 0.0 | 1.6 | 0.00 | 0.00 | 0.00 | 45 | 1009.7 |
| 20260508050518 | 7 | 267 | 0.0 | 0.0 | 0.00 | 0.00 | 0.00 | 45 | 1009.8 |
| 20260508050021 | 7 | 269 | 0.0 | 1.6 | 0.00 | 0.00 | 0.00 | 45 | 1009.8 |
| 20260508045517 | 7 | 269 | 0.0 | 1.6 | 0.00 | 0.00 | 0.00 | 45 | 1009.8 |
| 20260508045018 | 7 | 265 | 0.0 | 1.6 | 0.00 | 0.00 | 0.00 | 45 | 1009.9 |
| 20260508044620 | 7 | 267 | 0.0 | 1.6 | 0.00 | 0.00 | 0.00 | 44 | 1009.9 |
| 20260508044017 | 7 | 262 | 0.0 | 1.6 | 0.00 | 0.00 | 0.00 | 44 | 1010.0 |
| 20260508043517 | 7 | 262 | 0.0 | 3.2 | 0.00 | 0.00 | 0.00 | 44 | 1010.0 |
| 20260508043020 | 7 | 266 | 1.6 | 3.2 | 0.00 | 0.00 | 0.00 | 44 | 1010.1 |
| 20260508042519 | 7 | 262 | 0.0 | 1.6 | 0.00 | 0.00 | 0.00 | 44 | 1010.0 |
| 20260508042016 | 7 | 253 | 0.0 | 1.6 | 0.00 | 0.00 | 0.00 | 43 | 1010.1 |
| 20260508041517 | 7 | 250 | 0.0 | 3.2 | 0.00 | 0.00 | 0.00 | 43 | 1010.1 |
| 20260508041016 | 7 | 255 | 1.6 | 3.2 | 0.00 | 0.00 | 0.00 | 43 | 1010.1 |
| 20260508040515 | 7 | 249 | 0.0 | 3.2 | 0.00 | 0.00 | 0.00 | 43 | 1010.1 |
| 20260508040116 | 7 | 255 | 0.0 | 1.6 | 0.00 | 0.00 | 0.00 | 42 | 1010.1 |
| 20260508035515 | 8 | 262 | 0.0 | 1.6 | 0.00 | 0.00 | 0.00 | 42 | 1010.2 |
| 20260508035015 | 8 | 253 | 0.0 | 1.6 | 0.00 | 0.00 | 0.00 | 42 | 1010.2 |
| 20260508034515 | 8 | 252 | 0.0 | 1.6 | 0.00 | 0.00 | 0.00 | 42 | 1010.3 |
| 20260508034015 | 8 | 250 | 0.0 | 1.6 | 0.00 | 0.00 | 0.00 | 42 | 1010.3 |
| 20260508033514 | 8 | 245 | 0.0 | 1.6 | 0.00 | 0.00 | 0.00 | 41 | 1010.3 |
| 20260508033017 | 8 | 253 | 0.0 | 1.6 | 0.00 | 0.00 | 0.00 | 41 | 1010.3 |
| 20260508032518 | 8 | 256 | 0.0 | 0.0 | 0.00 | 0.00 | 0.00 | 40 | 1010.4 |
| 20260508032013 | 8 | 256 | 0.0 | 0.0 | 0.00 | 0.00 | 0.00 | 40 | 1010.3 |
| 20260508031514 | 8 | 256 | 0.0 | 0.0 | 0.00 | 0.00 | 0.00 | 40 | 1010.4 |
| 20260508031014 | 8 | 255 | 0.0 | 0.0 | 0.00 | 0.00 | 0.00 | 39 | 1010.4 |
| 20260508030514 | 8 | 256 | 0.0 | 1.6 | 0.00 | 0.00 | 0.00 | 39 | 1010.4 |
| 20260508030014 | 8 | 256 | 0.0 | 1.6 | 0.00 | 0.00 | 0.00 | 39 | 1010.4 |
| 20260508025517 | 8 | 255 | 0.0 | 1.6 | 0.00 | 0.00 | 0.00 | 39 | 1010.4 |
| 20260508025013 | 8 | 257 | 0.0 | 1.6 | 0.00 | 0.00 | 0.00 | 39 | 1010.4 |
| 20260508024530 | 9 | 259 | 0.0 | 1.6 | 0.00 | 0.00 | 0.00 | 40 | 1010.4 |
| 20260508024016 | 9 | 262 | 0.0 | 1.6 | 0.00 | 0.00 | 0.00 | 40 | 1010.3 |
| 20260508023512 | 9 | 263 | 0.0 | 1.6 | 0.00 | 0.00 | 0.00 | 40 | 1010.4 |
| 20260508023022 | 9 | 264 | 0.0 | 1.6 | 0.00 | 0.00 | 0.00 | 41 | 1010.4 |
| 20260508022512 | 9 | 273 | 0.0 | 0.0 | 0.00 | 0.00 | 0.00 | 42 | 1010.4 |
| 20260508022012 | 10 | 273 | 0.0 | 1.6 | 0.00 | 0.00 | 0.00 | 44 | 1010.3 |
| 20260508021513 | 10 | 273 | 0.0 | 1.6 | 0.00 | 0.00 | 0.00 | 44 | 1010.2 |
| 20260508021013 | 10 | 277 | 0.0 | 1.6 | 0.00 | 0.00 | 0.00 | 44 | 1010.2 |
| 20260508020511 | 10 | 274 | 0.0 | 1.6 | 0.00 | 0.00 | 0.00 | 43 | 1010.2 |
| 20260508020011 | 10 | 274 | 0.0 | 1.6 | 0.00 | 0.00 | 0.00 | 43 | 1010.2 |
| 20260508015511 | 10 | 274 | 0.0 | 1.6 | 0.00 | 0.00 | 0.00 | 42 | 1010.1 |
| 20260508015011 | 11 | 246 | 0.0 | 1.6 | 0.00 | 0.00 | 0.00 | 40 | 1010.1 |
| 20260508014511 | 11 | 281 | 0.0 | 3.2 | 0.00 | 0.00 | 0.00 | 38 | 1010.1 |
| 20260508014011 | 11 | 287 | 0.0 | 3.2 | 0.00 | 0.00 | 0.00 | 36 | 1010.0 |
| 20260508013514 | 11 | 297 | 0.0 | 4.8 | 0.00 | 0.00 | 0.00 | 36 | 1010.0 |
| 20260508013010 | 11 | 283 | 1.6 | 6.4 | 0.00 | 0.00 | 0.00 | 36 | 1010.0 |
| 20260508012510 | 12 | 284 | 1.6 | 6.4 | 0.00 | 0.00 | 0.00 | 35 | 1009.9 |
| 20260508012011 | 12 | 294 | 1.6 | 6.4 | 0.00 | 0.00 | 0.00 | 35 | 1010.0 |
| 20260508011509 | 12 | 284 | 3.2 | 8.0 | 0.00 | 0.00 | 0.00 | 34 | 1009.9 |
| 20260508011009 | 12 | 277 | 3.2 | 8.0 | 0.00 | 0.00 | 0.00 | 33 | 1009.9 |
| 20260508010508 | 12 | 290 | 3.2 | 12.9 | 0.00 | 0.00 | 0.00 | 33 | 1009.9 |
| 20260508010010 | 12 | 301 | 4.8 | 14.5 | 0.00 | 0.00 | 0.00 | 32 | 1009.8 |
| 20260508005508 | 12 | 302 | 4.8 | 14.5 | 0.00 | 0.00 | 0.00 | 32 | 1009.9 |
| 20260508005010 | 13 | 288 | 4.8 | 16.1 | 0.00 | 0.00 | 0.00 | 32 | 1009.8 |
| 20260508004507 | 13 | 283 | 3.2 | 20.9 | 0.00 | 0.00 | 0.00 | 32 | 1009.8 |
| 20260508004012 | 13 | 303 | 8.0 | 20.9 | 0.00 | 0.00 | 0.00 | 32 | 1009.7 |
| 20260508003510 | 13 | 269 | 8.0 | 19.3 | 0.00 | 0.00 | 0.00 | 31 | 1009.8 |
| 20260508003006 | 13 | 307 | 11.3 | 20.9 | 0.00 | 0.00 | 0.00 | 31 | 1009.8 |
| 20260508002508 | 13 | 334 | 8.0 | 20.9 | 0.00 | 0.00 | 0.00 | 31 | 1009.8 |
| 20260508002005 | 13 | 305 | 9.7 | 17.7 | 0.00 | 0.00 | 0.00 | 31 | 1009.8 |
| 20260508001504 | 13 | 253 | 4.8 | 19.3 | 0.00 | 0.00 | 0.00 | 31 | 1009.8 |
| 20260508001004 | 13 | 294 | 6.4 | 20.9 | 0.00 | 0.00 | 0.00 | 30 | 1009.9 |
| 20260508000504 | 13 | 323 | 8.0 | 20.9 | 0.00 | 0.00 | 0.00 | 29 | 1009.9 |
| 20260508000004 | 13 | 294 | 9.7 | 20.9 | 0.00 | 0.00 | 0.00 | 30 | 1010.0 |
| 20260507235508 | 13 | 269 | 4.8 | 22.5 | 0.00 | 0.00 | 0.00 | 31 | 1010.0 |
| 20260507235003 | 13 | 316 | 9.7 | 22.5 | 0.00 | 0.00 | 0.00 | 30 | 1010.0 |
| 20260507234504 | 13 | 328 | 11.3 | 22.5 | 0.00 | 0.00 | 0.00 | 30 | 1010.0 |
| 20260507234002 | 13 | 252 | 3.2 | 14.5 | 0.00 | 0.00 | 0.00 | 29 | 1010.0 |
| 20260507233502 | 13 | 333 | 3.2 | 19.3 | 0.00 | 0.00 | 0.00 | 29 | 1010.0 |
| 20260507233002 | 13 | 315 | 6.4 | 25.7 | 0.00 | 0.00 | 0.00 | 31 | 1010.0 |
| 20260507232503 | 13 | 305 | 12.9 | 25.7 | 0.00 | 0.00 | 0.00 | 30 | 1010.1 |
| 20260507232100 | 14 | 285 | 11.3 | 20.9 | 0.00 | 0.00 | 0.00 | 29 | 1010.1 |
| 20260507231601 | 14 | 285 | 9.7 | 17.7 | 0.00 | 0.00 | 0.00 | 29 | 1010.1 |
| 20260507231059 | 14 | 281 | 11.3 | 19.3 | 0.00 | 0.00 | 0.00 | 30 | 1010.2 |
| 20260507230602 | 13 | 25 | 4.8 | 30.6 | 0.00 | 0.00 | 0.00 | 30 | 1010.3 |
| 20260507230105 | 13 | 357 | 17.7 | 30.6 | 0.00 | 0.00 | 0.00 | 30 | 1010.3 |
| 20260507225558 | 13 | 316 | 16.1 | 25.7 | 0.00 | 0.00 | 0.00 | 31 | 1010.3 |
| 20260507225057 | 13 | 287 | 11.3 | 24.1 | 0.00 | 0.00 | 0.00 | 32 | 1010.3 |
| 20260507224603 | 13 | 287 | 11.3 | 22.5 | 0.00 | 0.00 | 0.00 | 30 | 1010.4 |
| 20260507224056 | 13 | 288 | 11.3 | 17.7 | 0.00 | 0.00 | 0.00 | 30 | 1010.4 |
| 20260507223556 | 13 | 335 | 6.4 | 17.7 | 0.00 | 0.00 | 0.00 | 29 | 1010.5 |
| 20260507223055 | 13 | 284 | 8.0 | 24.1 | 0.00 | 0.00 | 0.00 | 29 | 1010.6 |
| 20260507222557 | 13 | 294 | 9.7 | 25.7 | 0.00 | 0.00 | 0.00 | 29 | 1010.5 |
| 20260507222055 | 13 | 278 | 16.1 | 25.7 | 0.00 | 0.00 | 0.00 | 29 | 1010.5 |
| 20260507221553 | 13 | 278 | 11.3 | 20.9 | 0.00 | 0.00 | 0.00 | 29 | 1010.6 |
| 20260507221054 | 13 | 339 | 6.4 | 25.7 | 0.00 | 0.00 | 0.00 | 29 | 1010.6 |
| 20260507220551 | 13 | 266 | 11.3 | 25.7 | 0.00 | 0.00 | 0.00 | 29 | 1010.8 |
| 20260507220051 | 13 | 273 | 9.7 | 24.1 | 0.00 | 0.00 | 0.00 | 30 | 1010.7 |
| 20260507215551 | 13 | 238 | 8.0 | 24.1 | 0.00 | 0.00 | 0.00 | 29 | 1010.8 |
| 20260507215050 | 13 | 288 | 17.7 | 32.2 | 0.00 | 0.00 | 0.00 | 29 | 1010.8 |
| 20260507214602 | 13 | 294 | 11.3 | 30.6 | 0.00 | 0.00 | 0.00 | 32 | 1010.7 |
| 20260507214050 | 13 | 269 | 9.7 | 16.1 | 0.00 | 0.00 | 0.00 | 29 | 1010.8 |
| 20260507213549 | 13 | 328 | 4.8 | 22.5 | 0.00 | 0.00 | 0.00 | 29 | 1010.9 |
| 20260507213048 | 13 | 295 | 9.7 | 29.0 | 0.00 | 0.00 | 0.00 | 30 | 1010.9 |
| 20260507212548 | 13 | 255 | 12.9 | 29.0 | 0.00 | 0.00 | 0.00 | 29 | 1011.0 |
| 20260507212047 | 13 | 280 | 9.7 | 17.7 | 0.00 | 0.00 | 0.00 | 30 | 1011.0 |
| 20260507211550 | 12 | 358 | 1.6 | 16.1 | 0.00 | 0.00 | 0.00 | 29 | 1011.0 |
| 20260507211046 | 13 | 278 | 6.4 | 22.5 | 0.00 | 0.00 | 0.00 | 28 | 1011.1 |
| 20260507210546 | 13 | 353 | 9.7 | 30.6 | 0.00 | 0.00 | 0.00 | 29 | 1011.2 |
| 20260507210047 | 12 | 245 | 17.7 | 30.6 | 0.00 | 0.00 | 0.00 | 32 | 1010.8 |
| 20260507205544 | 12 | 287 | 20.9 | 30.6 | 0.00 | 0.00 | 0.00 | 31 | 1011.1 |
| 20260507205043 | 12 | 269 | 12.9 | 29.0 | 0.00 | 0.00 | 0.00 | 29 | 1011.1 |
| 20260507204542 | 12 | 299 | 8.0 | 27.4 | 0.00 | 0.00 | 0.00 | 29 | 1011.3 |
| 20260507204045 | 12 | 270 | 17.7 | 27.4 | 0.00 | 0.00 | 0.00 | 30 | 1011.4 |
| 20260507203540 | 12 | 257 | 4.8 | 16.1 | 0.00 | 0.00 | 0.00 | 29 | 1011.5 |
| 20260507203054 | 12 | 271 | 4.8 | 25.7 | 0.00 | 0.00 | 0.00 | 30 | 1011.5 |
| 20260507202539 | 12 | 293 | 9.7 | 25.7 | 0.00 | 0.00 | 0.00 | 30 | 1011.7 |
| 20260507202037 | 12 | 276 | 4.8 | 17.7 | 0.00 | 0.00 | 0.00 | 29 | 1011.7 |
| 20260507201537 | 12 | 301 | 3.2 | 17.7 | 0.00 | 0.00 | 0.00 | 30 | 1011.7 |
| 20260507201036 | 12 | 93 | 3.2 | 14.5 | 0.00 | 0.00 | 0.00 | 30 | 1011.8 |
| 20260507200537 | 12 | 280 | 4.8 | 19.3 | 0.00 | 0.00 | 0.00 | 30 | 1011.9 |
| 20260507200134 | 12 | 324 | 4.8 | 19.3 | 0.00 | 0.00 | 0.00 | 29 | 1012.0 |
| 20260507195534 | 12 | 301 | 6.4 | 17.7 | 0.00 | 0.00 | 0.00 | 31 | 1012.0 |
| 20260507195036 | 12 | 326 | 9.7 | 20.9 | 0.00 | 0.00 | 0.00 | 29 | 1012.0 |
| 20260507194534 | 12 | 242 | 9.7 | 20.9 | 0.00 | 0.00 | 0.00 | 30 | 1012.1 |
| 20260507194032 | 12 | 226 | 1.6 | 14.5 | 0.00 | 0.00 | 0.00 | 31 | 1012.1 |
| 20260507193533 | 12 | 255 | 6.4 | 16.1 | 0.00 | 0.00 | 0.00 | 29 | 1012.2 |
| 20260507193030 | 11 | 256 | 8.0 | 24.1 | 0.00 | 0.00 | 0.00 | 30 | 1012.2 |
| 20260507192532 | 12 | 236 | 16.1 | 24.1 | 0.00 | 0.00 | 0.00 | 29 | 1012.2 |
| 20260507192034 | 12 | 74 | 1.6 | 24.1 | 0.00 | 0.00 | 0.00 | 30 | 1012.2 |
| 20260507191528 | 12 | 262 | 9.7 | 24.1 | 0.00 | 0.00 | 0.00 | 30 | 1012.4 |
| 20260507191027 | 12 | 285 | 3.2 | 14.5 | 0.00 | 0.00 | 0.00 | 30 | 1012.3 |
| 20260507190529 | 11 | 29 | 3.2 | 19.3 | 0.00 | 0.00 | 0.00 | 30 | 1012.4 |
| 20260507190027 | 11 | 273 | 6.4 | 22.5 | 0.00 | 0.00 | 0.00 | 32 | 1012.5 |
| 20260507185529 | 11 | 284 | 8.0 | 22.5 | 0.00 | 0.00 | 0.00 | 31 | 1012.4 |
| 20260507185024 | 11 | 277 | 4.8 | 19.3 | 0.00 | 0.00 | 0.00 | 32 | 1012.4 |
| 20260507184523 | 11 | 283 | 8.0 | 19.3 | 0.00 | 0.00 | 0.00 | 30 | 1012.4 |
| 20260507184023 | 11 | 34 | 3.2 | 14.5 | 0.00 | 0.00 | 0.00 | 32 | 1012.5 |
| 20260507183522 | 11 | 305 | 3.2 | 17.7 | 0.00 | 0.00 | 0.00 | 30 | 1012.6 |
| 20260507183021 | 11 | 323 | 9.7 | 24.1 | 0.00 | 0.00 | 0.00 | 30 | 1012.7 |
| 20260507182521 | 11 | 283 | 16.1 | 24.1 | 0.00 | 0.00 | 0.00 | 30 | 1012.7 |
| 20260507182020 | 11 | 293 | 0.0 | 17.7 | 0.00 | 0.00 | 0.00 | 32 | 1012.7 |
| 20260507181524 | 10 | 58 | 6.4 | 17.7 | 0.00 | 0.00 | 0.00 | 32 | 1012.8 |
| 20260507181019 | 10 | 295 | 9.7 | 20.9 | 0.00 | 0.00 | 0.00 | 30 | 1012.8 |
| 20260507180517 | 10 | 329 | 6.4 | 27.4 | 0.00 | 0.00 | 0.00 | 32 | 1012.9 |
| 20260507180023 | 10 | 299 | 12.9 | 27.4 | 0.00 | 0.00 | 0.00 | 31 | 1012.8 |
| 20260507175517 | 10 | 311 | 11.3 | 22.5 | 0.00 | 0.00 | 0.00 | 31 | 1012.9 |
| 20260507175116 | 10 | 263 | 12.9 | 19.3 | 0.00 | 0.00 | 0.00 | 31 | 1012.8 |
| 20260507174515 | 10 | 273 | 11.3 | 20.9 | 0.00 | 0.00 | 0.00 | 32 | 1013.0 |
| 20260507174014 | 10 | 276 | 11.3 | 19.3 | 0.00 | 0.00 | 0.00 | 33 | 1013.1 |
| 20260507173514 | 10 | 320 | 6.4 | 20.9 | 0.00 | 0.00 | 0.00 | 32 | 1013.2 |
| 20260507173027 | 10 | 312 | 4.8 | 20.9 | 0.00 | 0.00 | 0.00 | 32 | 1013.3 |
| 20260507172513 | 10 | 311 | 6.4 | 19.3 | 0.00 | 0.00 | 0.00 | 33 | 1013.3 |
| 20260507172011 | 10 | 300 | 6.4 | 24.1 | 0.00 | 0.00 | 0.00 | 32 | 1013.2 |
| 20260507171511 | 10 | 278 | 12.9 | 24.1 | 0.00 | 0.00 | 0.00 | 32 | 1013.3 |
| 20260507171012 | 10 | 288 | 8.0 | 12.9 | 0.00 | 0.00 | 0.00 | 32 | 1013.4 |
| 20260507170510 | 10 | 281 | 1.6 | 8.0 | 0.00 | 0.00 | 0.00 | 34 | 1013.4 |
| 20260507170008 | 9 | 118 | 1.6 | 12.9 | 0.00 | 0.00 | 0.00 | 33 | 1013.4 |
| 20260507165510 | 9 | 280 | 8.0 | 20.9 | 0.00 | 0.00 | 0.00 | 32 | 1013.5 |
| 20260507165010 | 9 | 314 | 9.7 | 22.5 | 0.00 | 0.00 | 0.00 | 33 | 1013.5 |
| 20260507164508 | 9 | 290 | 11.3 | 25.7 | 0.00 | 0.00 | 0.00 | 33 | 1013.5 |
| 20260507164007 | 9 | 278 | 12.9 | 25.7 | 0.00 | 0.00 | 0.00 | 33 | 1013.5 |
| 20260507163506 | 9 | 292 | 3.2 | 12.9 | 0.00 | 0.00 | 0.00 | 34 | 1013.7 |
| 20260507163010 | 9 | 307 | 4.8 | 12.9 | 0.00 | 0.00 | 0.00 | 33 | 1013.8 |
| 20260507162504 | 9 | 276 | 3.2 | 14.5 | 0.00 | 0.00 | 0.00 | 35 | 1013.8 |
| 20260507162004 | 9 | 316 | 8.0 | 14.5 | 0.00 | 0.00 | 0.00 | 34 | 1013.9 |
| 20260507161503 | 8 | 316 | 0.0 | 14.5 | 0.00 | 0.00 | 0.00 | 36 | 1013.9 |
| 20260507161002 | 8 | 79 | 8.0 | 14.5 | 0.00 | 0.00 | 0.00 | 34 | 1013.9 |
| 20260507160501 | 8 | 20 | 0.0 | 8.0 | 0.00 | 0.00 | 0.00 | 40 | 1013.9 |
| 20260507160100 | 8 | 323 | 3.2 | 9.7 | 0.00 | 0.00 | 0.00 | 38 | 1014.0 |
| 20260507155559 | 8 | 316 | 4.8 | 9.7 | 0.00 | 0.00 | 0.00 | 38 | 1013.9 |
| 20260507155106 | 8 | 292 | 0.0 | 14.5 | 0.00 | 0.00 | 0.00 | 39 | 1014.0 |
| 20260507154600 | 8 | 293 | 6.4 | 14.5 | 0.00 | 0.00 | 0.00 | 37 | 1014.0 |
| 20260507154059 | 8 | 281 | 1.6 | 8.0 | 0.00 | 0.00 | 0.00 | 43 | 1014.0 |
| 20260507153556 | 8 | 278 | 1.6 | 11.3 | 0.00 | 0.00 | 0.00 | 42 | 1014.1 |
| 20260507153056 | 7 | 200 | 4.8 | 14.5 | 0.00 | 0.00 | 0.00 | 43 | 1014.0 |
| 20260507152555 | 7 | 297 | 8.0 | 14.5 | 0.00 | 0.00 | 0.00 | 43 | 1014.1 |
| 20260507152053 | 7 | 167 | 0.0 | 16.1 | 0.00 | 0.00 | 0.00 | 42 | 1014.1 |
| 20260507151553 | 7 | 259 | 6.4 | 16.1 | 0.00 | 0.00 | 0.00 | 43 | 1014.1 |
| 20260507151051 | 7 | 288 | 6.4 | 12.9 | 0.00 | 0.00 | 0.00 | 44 | 1014.0 |
| 20260507150552 | 7 | 276 | 6.4 | 9.7 | 0.00 | 0.00 | 0.00 | 44 | 1014.1 |
| 20260507150049 | 7 | 315 | 0.0 | 12.9 | 0.00 | 0.00 | 0.00 | 47 | 1014.1 |
| 20260507145548 | 7 | 287 | 4.8 | 11.3 | 0.00 | 0.00 | 0.00 | 46 | 1014.1 |
| 20260507145049 | 7 | 274 | 4.8 | 11.3 | 0.00 | 0.00 | 0.00 | 47 | 1014.2 |
| 20260507144547 | 6 | 280 | 3.2 | 11.3 | 0.00 | 0.00 | 0.00 | 46 | 1014.2 |
| 20260507144048 | 6 | 297 | 3.2 | 11.3 | 0.00 | 0.00 | 0.00 | 47 | 1014.2 |
| 20260507143550 | 6 | 274 | 3.2 | 9.7 | 0.00 | 0.00 | 0.00 | 48 | 1014.2 |
| 20260507143045 | 6 | 290 | 3.2 | 8.0 | 0.00 | 0.00 | 0.00 | 49 | 1014.2 |
| 20260507142544 | 6 | 288 | 1.6 | 8.0 | 0.00 | 0.00 | 0.00 | 49 | 1014.3 |
| 20260507142043 | 6 | 293 | 3.2 | 8.0 | 0.00 | 0.00 | 0.00 | 51 | 1014.3 |
| 20260507141548 | 6 | 297 | 1.6 | 9.7 | 0.00 | 0.00 | 0.00 | 51 | 1014.3 |